Regional Weather Roundup
Issued by NWS Northern Indiana

Home | Current Version | Previous Version | Graphics & Text | Print | Product List | Glossary On
Versions: 1 2 3 4 5 6 7 8 9 10 11 12 13 14 15 16 17 18 19 20 21 22 23 24 25 26 27 28 29 30 31 32 33 34 35 36 37 38 39 40 41 42 43 44 45 46 47 48 49 50
685
ASUS43 KIWX 091000
RWRIWX

KIWX WEATHER ROUNDUP
NATIONAL WEATHER SERVICE NORTHERN INDIANA
500 AM EST TUE FEB 09 2016

NOTE: "FAIR" INDICATES FEW OR NO CLOUDS BELOW 12,000 FEET WITH NO
SIGNIFICANT WEATHER AND/OR OBSTRUCTIONS TO VISIBILITY.

* THESE STATIONS ARE NOT UNDER NWS QUALITY CONTROL. THEY ALSO MAY NOT
  REPORT WEATHER SUCH AS PRECIPITATION OR FOG.

INZ001>027-091100-
NORTHERN INDIANA

CITY           SKY/WX    TMP DP  RH WIND       PRES   REMARKS
SOUTH BEND     LGT SNOW  24  22  91 W13       29.64S FOG     WCI  12
GOSHEN         CLOUDY    26  22  84 W18       29.61S WCI  13
ANGOLA*        CLOUDY    27  25  93 W7        29.56S WCI  19
FORT WAYNE     FLURRIES  27  22  81 W17       29.63S WCI  14

$$
INZ028>050-091100-
CENTRAL INDIANA

CITY           SKY/WX    TMP DP  RH WIND       PRES   REMARKS
LAFAYETTE      CLOUDY    20  15  81 W15G21    29.74R WCI   6
KOKOMO*        CLOUDY    23  18  80 W16       29.68S WCI  10
MUNCIE*        CLOUDY    24  19  81 W10       29.67R WCI  14
INDIANAPOLIS   FLURRIES  21  16  81 W14       29.72S WCI   8

$$
MIZ043>046-050>051-056>058-064>065-071>073-077>080-091100-
SOUTHWEST LOWER MICHIGAN

CITY           SKY/WX    TMP DP  RH WIND       PRES   REMARKS
BATTLE CREEK   CLOUDY    31  28  89 NW9       29.56S WCI  23
BENTON HARBOR  LGT SNOW  30  27  88 NW9G20    29.63S VSB 3/4 WCI  22
COLDWATER*     CLOUDY    28  28  96 W6        29.56S WCI  22
HILLSDALE*     CLOUDY    28  27  98 W12       29.54S WCI  18
HOLLAND        CLOUDY    28  24  85 NW7       29.63R WCI  21
GRAND RAPIDS   CLOUDY    29  25  85 NW14      29.60R WCI  18
KALAMAZOO      CLOUDY    32  28  85 NW10      29.57S WCI  24
STURGIS*       CLOUDY    28  27  96 W7        29.57R FOG     WCI  20
THREE RIVERS*  CLOUDY    31  30  95 NW12      29.59R WCI  22

$$
OHZ001>008-015>018-024>025-091100-
NORTHWEST OHIO

CITY           SKY/WX    TMP DP  RH WIND       PRES   REMARKS
DEFIANCE       LGT SNOW  29  24  82 W8        29.60S WCI  21
FINDLAY        CLOUDY    29  23  78 W16       29.58S WCI  17
TOLEDO EXPRESS CLOUDY    29  25  85 W15       29.56S WCI  18
TOLEDO METCALF CLOUDY    31  25  78 W14       29.57S WCI  21
LIMA           CLOUDY    26  23  88 W15       29.60S WCI  14

$$
AND FOR LAKE MICHIGAN COASTAL AND OPEN LAKE BUOY OBSERVATIONS

STATION/POSITION TEMP    WIND        PRES    VSBY  WAVE
                 AIR SEA DIR/SP/G                  HT/PER
                 (F)     (DEG/KT/KT) (MB)    (MI)  (FT/S)
CALUMET HARBOR    20     280/  5/ 15 1006.1S
MICHIGAN CITY     24     260/ 23/ 26   N/A
BURNS HARBOR      23     310/ 16/ 19 1006.4F
SAINT JOSEPH      31     310/ 18/ 22 1004.4F

$$
&&




USA.gov is the U.S. government's official web portal to all federal, state and local government web resources and services.